H-3 R/B, 61734

Orbit data source: Space-Track

H-3 R/B, 61734 is space debris originally from a launch on Mon, 04 Nov 2024 UTC launched from the Tanegashima Space Center (TNSTA). Debris objects in space refer to the collection of defunct objects orbiting the Earth. Examples of debris include non-operational satellites, rocket bodies, and fragments generated from explosions, collisions, or faulty payload assembly.

Loading next visibility...
H-3 R/B details
Identifier
61734, 2024-198B
Orbit
Molniya
Last TLE update1 day ago
Origin
Flag of JPMHI (JP / JPN)
ManufacturerMHI Tobishima
MissionSpacecraft
Bus & MotorH-2A STAGE 2, Unknown motor
Mass2,500 kg wet, 2,500 kg dry
Launch date (UTC)
2024-11-04 (1 month ago)
Launch vehicleUnknown
Launch site
Tanegashima Space Center (TNSTA)
Object type
Payload
Rocket body
Debris
Shape & HBRUnknown
Radar Cross SectionRCS unknown

Expand to show TLE details & history

TLE from 1 day ago
0 H-3 R/B
1 61734U 24198B   24347.91942428  .00073230 -72756-6  74058-3 0  9990
2 61734  24.4358 171.8664 7232467 205.5843  85.3640  2.39634819   900
Epoch: 2024-12-12T22:03Z
Definitive object data (Epoch: 2024-12-12T22:03:58.257Z)
Latitude-0.00029°
Longitude118.72211°
Altitude25,935.303 km
Speed2.788 km/s
True Right ascension11h 27m 13s
True Declination0° 00' 01"
Sunlit
Object was in daylight at TLE epoch
Visualization TLE readout
Latitude13.32198°
Longitude149.81099°
Altitude33,341.128 km
Speed1.78 km/s
Apparent Right ascension13h 03m 37s
Apparent Declination7° 16' 26"
Sunlit
Object is in daylight
Visualization observer readout
Local Sidereal Time20:08:36
Azimuth286.117° WNW
Elevation-7.562°
Doppler factor1
Orbital elements
Apogee altitude34,278.102 km
Perigee altitude151.252 km
Semi-major axis23,592.814 km
Eccentricity0.7232467
Inclination24.4358°
RAAN171.8664°
Arg. of periapsis205.5843°
True anomaly154.40778°
Mean anomaly85.364°
Eccentric anomaly120.91556°
Mean motion0.59893 °/min
BSTAR0.00074058
Orbital period601.08 mins
Loading maneuver chart data...
Loading historical data...
Loading historical data...
Loading historical data...
Loading historical data...
Loading historical data...
Loading historical data...
Loading historical data...
Other satellites on launch #198 in the year 2024 (2024-11-04 UTC)

H-3 R/B Visibility forecast

Observer location: undefined°, undefined

Span
Click to sort rows by Start time (UTC) header in descending order
Start Az.
Max El. time (UTC)
Max El. Az.
Max El.
End time (UTC)
End Az.
535 mins2024-12-14 12:35:50.892Z211.297° SW2024-12-14 21:15:50.892Z218.239° SW37.065°2024-12-14 21:30:50.892Z145.502° SSE
|